Location: eljas
(40.1958°N, 6.8661°W)
Time: 16:26:50
(UTC+02:00)

ISS - All Passes

Search period start: 28 April 2015 00:00
Search period end: 08 May 2015 00:00
Orbit: 395 x 402 km, 51.6° (Epoch: 28 April)

Date Brightness Start Highest point End Pass type
(mag) Time Alt. Az. Time Alt. Az. Time Alt. Az.
28 Apr - 12:05:13 10° SSW 12:07:57 25° SE 12:10:44 10° ENE daylight
28 Apr - 13:41:11 10° W 13:44:13 35° NNW 13:47:16 10° NE daylight
28 Apr - 15:19:44 10° NW 15:21:19 13° N 15:22:52 10° NNE daylight
28 Apr - 16:57:10 10° NNW 16:58:45 13° N 17:00:21 10° NE daylight
28 Apr - 18:32:47 10° NW 18:35:50 36° NNE 18:38:53 10° E daylight
28 Apr - 20:09:21 10° WNW 20:12:06 25° SW 20:14:49 10° SSE daylight
29 Apr - 11:12:28 10° SSE 11:13:57 13° SE 11:15:32 10° E daylight
29 Apr - 12:46:44 10° WSW 12:49:58 65° NW 12:53:12 10° NE daylight
29 Apr - 14:24:42 10° WNW 14:26:49 16° NNW 14:28:54 10° NNE daylight
29 Apr - 16:03:03 10° NNW 16:04:12 11° N 16:05:22 10° NNE daylight
29 Apr - 17:38:48 10° NNW 17:41:29 23° NNE 17:44:10 10° E daylight
29 Apr - 19:14:49 10° WNW 19:18:01 52° SW 19:21:11 10° SE daylight
30 Apr - 11:52:33 10° SW 11:55:45 60° SE 11:58:58 10° ENE daylight
30 Apr - 13:29:44 10° WNW 13:32:20 21° NNW 13:34:55 10° NNE daylight
30 Apr - 15:08:31 10° NNW 15:09:38 11° N 15:10:43 10° NNE daylight
30 Apr - 16:44:49 10° NNW 16:47:00 16° NNE 16:49:12 10° ENE daylight
30 Apr - 18:20:33 10° NW 18:23:49 74° NE 18:27:04 10° ESE daylight
30 Apr - 19:58:39 10° WSW 19:59:47 11° SW 20:00:48 10° SSW daylight
01 May - 10:58:47 10° SSW 11:01:36 28° SE 11:04:27 10° ENE daylight
01 May - 12:34:55 10° W 12:37:54 33° NNW 12:40:53 10° NE daylight
01 May - 14:13:31 10° NW 14:15:01 12° N 14:16:29 10° NNE daylight
01 May - 15:50:48 10° NNW 15:52:26 13° N 15:54:06 10° NE daylight
01 May - 17:26:24 10° NW 17:29:29 38° NNE 17:32:33 10° ESE daylight
01 May - 19:03:03 10° W 19:05:42 23° SW 19:08:18 10° S daylight
02 May - 10:05:44 10° SSE 10:07:28 14° SE 10:09:19 10° E daylight
02 May - 11:40:18 10° WSW 11:43:30 59° NW 11:46:44 10° NE daylight
02 May - 13:18:22 10° NW 13:20:24 15° NNW 13:22:24 10° NNE daylight
02 May - 14:56:37 10° NNW 14:57:48 11° N 14:58:59 10° NNE daylight
02 May - 16:32:18 10° NNW 16:35:01 24° NNE 16:37:46 10° E daylight
02 May - 18:08:22 10° WNW 18:11:31 47° SW 18:14:39 10° SSE daylight
03 May - 10:45:59 10° SW 10:49:11 67° SE 10:52:25 10° ENE daylight
03 May - 12:23:16 10° WNW 12:25:48 20° NNW 12:28:20 10° NNE daylight
03 May - 14:02:02 10° NNW 14:03:06 11° N 14:04:09 10° NNE daylight
03 May - 15:38:13 10° NNW 15:40:27 17° NNE 15:42:43 10° ENE daylight
03 May - 17:13:58 10° NW 17:17:13 81° NE 17:20:28 10° SE daylight
03 May - 18:52:41 10° WSW 18:53:09 10° SW 18:53:29 10° SW daylight
04 May - 09:52:02 10° SSW 09:54:54 31° SE 09:57:50 10° ENE daylight
04 May - 11:28:18 10° W 11:31:14 31° NNW 11:34:11 10° NE daylight
04 May - 13:06:58 10° NW 13:08:22 12° N 13:09:47 10° NNE daylight
04 May - 14:44:05 10° NNW 14:45:47 13° NNE 14:47:30 10° NE daylight
04 May - 16:19:41 10° NW 16:22:48 41° NNE 16:25:54 10° ESE daylight
04 May - 17:56:26 10° W 17:58:58 21° SW 18:01:27 10° S daylight
05 May - 08:58:44 10° SSE 09:00:40 15° SE 09:02:42 10° E daylight
05 May - 10:33:33 10° WSW 10:36:44 54° NNW 10:39:56 10° NE daylight
05 May - 12:11:42 10° NW 12:13:39 15° NNW 12:15:34 10° NNE daylight
05 May - 13:49:50 10° NNW 13:51:02 12° N 13:52:16 10° NNE daylight
05 May - 15:25:29 10° NNW 15:28:15 25° NNE 15:31:02 10° E daylight
05 May - 17:01:35 10° WNW 17:04:41 43° SW 17:07:47 10° SSE daylight
06 May - 09:39:04 10° SW 09:42:17 74° SE 09:45:32 10° NE daylight
06 May - 11:16:28 10° WNW 11:18:56 19° NNW 11:21:23 10° NNE daylight
06 May - 12:55:12 10° NNW 12:56:14 11° N 12:57:16 10° NNE daylight
06 May - 14:31:16 10° NNW 14:33:34 18° NNE 14:35:54 10° ENE daylight
06 May - 16:07:02 10° NW 16:10:18 88° NE 16:13:33 10° SE daylight
07 May - 08:44:58 10° SSW 08:47:54 33° SE 08:50:53 10° ENE daylight
07 May - 10:21:22 10° W 10:24:15 29° NNW 10:27:09 10° NE daylight
07 May - 12:00:03 10° NNW 12:01:24 12° N 12:02:43 10° NNE daylight
07 May - 13:37:03 10° NNW 13:38:48 14° NNE 13:40:35 10° NE daylight
07 May - 15:12:39 10° NW 15:15:47 44° NNE 15:18:54 10° ESE daylight
07 May - 16:49:29 10° W 16:51:55 19° SW 16:54:17 10° S daylight
